COSMOS 1275 DEB, 13074

Orbit data source: Space-Track

COSMOS 1275 DEB, 13074 is space debris in LEO originally from a launch on Thu, 04 Jun 1981 UTC launched from the Plesetsk Missile And Space Complex (PKMTR). Debris objects in space refer to the collection of defunct objects orbiting the Earth. Examples of debris include non-operational satellites, rocket bodies, and fragments generated from explosions, collisions, or faulty payload assembly.

Loading next visibility...
Identifier
13074, 1981-053FA
Orbit
LEO
Country
Flag of CISCIS
Related business
Manufacturer
Unknown
Mission
Spacecraft
Bus & Motor
Unknown
Mass
Unknown
Launch date (UTC)
1981-06-04 (44 years ago)
Launch vehicle
Unknown
Launch site
Plesetsk Missile And Space Complex (PKMTR)
Object type
Payload
Rocket body
Debris
Shape & HBR
Unknown shape, 0.1 m
Radar Cross Section
Small (<0.1 m²)

Expand to show TLE details & history
Last TLE update: 9 hours ago

TLE from 9 hours ago
0 COSMOS 1275 DEB
1 13074U 81053FA  25304.65715389  .00000660  00000-0  57719-3 0  9994
2 13074  82.9480 350.9626 0031578 170.4923 315.2953 13.84060353224895
Epoch: 2025-10-31T15:46Z
TLE epoch observation values (Epoch: 2025-10-31T15:46:18.096Z)
Latitude
53.96332°
Longitude
-115.54962°
Altitude
941.976 km
Speed
7.394 km/s
True Right ascension
10h 44m 53s
True Declination
53° 48' 13"
Sunlit
Object was in daylight at epoch
Visualization orbit readout
Latitude
Unknown
Longitude
Unknown
Altitude
Unknown
Speed
Unknown
Apparent Right ascension
Unknown
Apparent Declination
Unknown
Sunlit
N/A
Visualization observer readout
Local Sidereal Time
20:38:52
Azimuth
Unknown
Elevation
Unknown
Doppler factor
Unknown
Orbital elements
Apogee altitude
969.787 km
Perigee altitude
923.526 km
Semi-major axis
7,324.793 km
Eccentricity
0.00316
Inclination
82.948°
RAAN
350.9626°
Arg. of periapsis
170.4923°
True anomaly
315.04004°
Mean anomaly
315.2953°
Eccentric anomaly
315.16774°
Mean motion
3.46218 °/min
Orbital period
103.98 mins
BSTAR
0.00057719
Loading maneuver chart data...
Computing Atmospheric mass density...
Loading historical data...
Loading historical data...
Loading historical data...
Loading historical data...
Loading historical data...
Loading historical data...
Loading historical data...

Documentation

Showing up to 5 results
|